Other Public Products
Issued by NWS Charleston, SC

Home | Current Version | Previous Version | Text Only | Print | Product List | Glossary On
Versions: 1 2 3 4 5 6 7 8 9 10 11 12 13 14 15 16 17 18 19 20 21 22 23 24 25 26 27 28 29 30 31 32 33 34 35 36 37 38 39 40 41 42 43 44 45 46 47 48 49 50
000
FPUS82 KCHS 231712
OPUCHS

TEST...KCHS/KSAV Gateway Observations...TEST
National Weather Service Charleston SC
100 PM EDT TUE MAY 23 2017

NOTE: "fair" indicates few or no clouds below 12,000 feet with no
significant weather and/or obstructions to visibility.

SCZ050-WAZ558-NCZ071-TXZ119-213-PAZ071-DCZ001-FLZ074-172-MI076-
NYZ176-178-MAZ016-IL014-TNZ027-NJZ106-GAZ044-MD014-231800-

...Gateway Observations for Charleston International...

CITY           SKY/WX    TMP DP  RH WIND       PRES   REMARKS
Chas Airport   LGT RAIN  80  71  74 SW14      29.79F
Seattle        MOSUNNY   69  56  62 W6        30.02F
Charlotte      RAIN      69  66  90 W3        29.82R FOG
Dallas DFW     PTSUNNY   72  64  76 N13       29.88F
Dallas Love    PTSUNNY   72  62  71 N8        29.88F
Philladelphia  CLOUDY    68  54  60 E8        29.94S
Wash National  CLOUDY    66  59  78 E12       29.92F
Baltimore      CLOUDY    64  57  78 E9        29.92F
Miami          PTSUNNY   87  70  56 S14G21    29.97F HX  92
Detroit        PTSUNNY   71  49  45 S12       29.83F
Newark         CLOUDY    68  48  48 NE10      29.93S
Laguardia      CLOUDY    66  48  52 NE5       29.92F
J F K          CLOUDY    68  49  50 N6        29.93F
Boston Logan   CLOUDY    61  53  75 SE10      29.89F
Ft. Lauderdale CLOUDY    87  69  54 S16       29.95F HX  91
Chicago O`Hare CLOUDY    61  53  75 SW8       29.78F
Chicago Midway LGT RAIN  62  54  74 SW5       29.79F
Houston Bush   MOSUNNY   79  64  60 NW9       29.86F
Houston Hobby  MOSUNNY   78  63  59 N8        29.86R
Nashville      PTSUNNY   75  57  53 CALM      29.76F
Atlanta        LGT RAIN  67  66  97 S5        29.79F

$$

GAZ044-118-TXZ119-213-NCZ071-DCZ001-MDZ014-506-PAZ021-071-NJZ106-
NYZ176-178-MAZ106-OHZ011-021-055-MIZ076-KYZ091-ILZ014-INZ047-
MNZ060-ONZ431-231800-

...Gateway Observations for Savannah International...

CITY           SKY/WX    TMP DP  RH WIND       PRES   REMARKS
Savannah Arpt  LGT RAIN  75  70  84 SW10      29.83F
Atlanta        LGT RAIN  67  66  97 S5        29.79F
Charlotte      RAIN      69  66  90 W3        29.82R FOG
Dallas DFW     PTSUNNY   72  64  76 N13       29.88F
Houston Bush   MOSUNNY   79  64  60 NW9       29.86F
Wash National  CLOUDY    66  59  78 E12       29.92F
Wash Dulles    LGT RAIN  64  55  72 NE6       29.93F
Baltimore      CLOUDY    64  57  78 E9        29.92F
Philadelphia   CLOUDY    68  54  60 E8        29.94S
Newark         CLOUDY    68  48  48 NE10      29.93S
Laguardia      CLOUDY    66  48  52 NE5       29.92F
J F K          CLOUDY    68  49  50 N6        29.93F
Boston         CLOUDY    61  53  75 SE10      29.89F
Pittsburg      CLOUDY    69  45  41 SE12      29.86F
Akron          MOSUNNY   71  46  40 E12       29.85F
Cleveland      PTSUNNY   72  46  39 E12       29.86F
Cincinnati     PTSUNNY   71  50  47 SE8       29.78F
Columbus       SUNNY     69  50  50 E9        29.79F
Detroit        PTSUNNY   71  49  45 S12       29.83F
Chicago O`Hare CLOUDY    61  53  75 SW8       29.78F
Minneapolis    CLOUDY    58  43  57 E10G16    29.82F
Indianapolis   CLOUDY    70  51  51 SE7       29.78F
Toronto Canada PTSUNNY   70  54  56 W13       29.84F

$$




USA.gov is the U.S. government's official web portal to all federal, state and local government web resources and services.